Location: Bittkow
(50.3000°N, 19.0000°E)
Time: 05:19:32
(UTC+00:00)

SL-16 R/B - Pass Details

Date: 19 September 2020
Orbit: 842 x 846 km, 71.0° (Epoch: 20 October)

Event Time Altitude Azimuth Distance (km) Brightness Sun altitude
Rises 02:44:44 0° 182° (S) 3,388 5.1 -16.5°
Reaches altitude 10° 02:47:18 10° 175° (S) 2,458 4.4 -16.1°
Maximum altitude 02:52:29 39° 108° (ESE) 1,249 3.5 -15.4°
Drops below altitude 10° 02:57:42 10° 41° (NE) 2,476 5.6 -14.6°
Sets 03:00:17 0° 34° (NE) 3,416 6.3 -14.2°
